This is the latest recevied weather packets stored in our database for station/object N8TWM-13. If no packets are shown the sender has not sent any weather packets the latest 10 day(s).
| Time | Temp. | Humidity | Pressure | Rain* | Wind** | Luminosity | Snow |
|---|---|---|---|---|---|---|---|
| 1787773675 | 25.56° C | 60% | 1015.8 hPa | 0 mm | - | 287 W/m² | - |
| 1787773371 | 25.56° C | 60% | 1015.9 hPa | 0 mm | - | 221 W/m² | - |
| 1787773066 | 26.67° C | 59% | 1015.7 hPa | 0 mm | - | 386 W/m² | - |
| 1787772762 | 26.67° C | 59% | 1016 hPa | 0 mm | - | 585 W/m² | - |
| 1787772460 | 26.11° C | 59% | 1015.9 hPa | 0 mm | - | 596 W/m² | - |
| 1787772154 | 26.67° C | 59% | 1016 hPa | 0 mm | - | 626 W/m² | - |
| 1787771853 | 26.11° C | 61% | 1015.9 hPa | 0 mm | - | 657 W/m² | - |
| 1787771553 | 25° C | 63% | 1015.8 hPa | 0 mm | - | 537 W/m² | - |
| 1787771247 | 25.56° C | 63% | 1016 hPa | 0 mm | - | 267 W/m² | - |
| 1787770943 | 25° C | 63% | 1016.1 hPa | 0 mm | - | 230 W/m² | - |
| 1787770641 | 25° C | 62% | 1016.1 hPa | 0 mm | - | 461 W/m² | - |
| 1787770336 | 25° C | 62% | 1016 hPa | 0 mm | - | 236 W/m² | - |
| 1787770035 | 25° C | 64% | 1016 hPa | 0 mm | - | 257 W/m² | - |
| 1787769729 | 25° C | 63% | 1015.9 hPa | 0 mm | - | 253 W/m² | - |
| 1787769428 | 25° C | 62% | 1015.9 hPa | 0 mm | - | 243 W/m² | - |
| 1787769123 | 25.56° C | 61% | 1015.8 hPa | 0 mm | - | 263 W/m² | - |
| 1787768818 | 26.11° C | 61% | 1016.2 hPa | 0 mm | - | 352 W/m² | - |
| 1787768514 | 26.11° C | 59% | 1015.9 hPa | 0 mm | - | 551 W/m² | - |
| 1787768209 | 26.11° C | 62% | 1016 hPa | 0 mm | - | 760 W/m² | - |
| 1787767906 | 26.11° C | 60% | 1016.2 hPa | 0 mm | - | 672 W/m² | - |
| 1787767600 | 25.56° C | 62% | 1016.3 hPa | 0 mm | - | 596 W/m² | - |
| 1787767300 | 26.11° C | 61% | 1016.3 hPa | 0 mm | - | 518 W/m² | - |
| 1787766998 | 25.56° C | 63% | 1016.5 hPa | 0 mm | - | 632 W/m² | - |
| 1787766692 | 25.56° C | 62% | 1016.4 hPa | 0 mm | - | 774 W/m² | - |
| 1787766392 | 25.56° C | 62% | 1016.8 hPa | 0 mm | - | 258 W/m² | - |
* Rain latest hour (hover to see other rain measurements)
** Current wind speed in m/s (hover to see current wind gust speed)